Wind_Speed
16 14 13 12 12 11 8 6 5 5 4 3 4 4 6 7 7 7 9 9 9 9 9 8 7 7 7 7 7 6 6 6 6 6 5 5 6 6 5 5 5 5 5 5
18 17 16 15 14 12 10 8 7 7 5 4 4 4 5 6 6 7 7 8 8 7 7 7 7 7 6 6 6 6 5 5 5 5 5 5 5 5 5 4 3 3 3 3
20 19 18 17 15 13 11 9 9 9 7 6 5 5 6 6 6 6 7 6 7 7 6 6 6 6 6 6 5 5 4 4 4 4 5 5 4 4 4 3 3 3 2 2
23 22 21 19 17 15 13 12 10 9 7 7 6 5 6 6 6 7 6 5 6 6 5 5 5 5 5 5 5 4 4 3 3 4 4 4 4 3 3 2 2 2 2 3
25 24 22 20 18 17 16 15 13 12 10 8 8 6 7 6 6 6 6 5 5 5 5 4 4 4 4 4 4 4 3 3 3 3 3 3 3 2 2 1 0 1 3 3
26 25 24 22 21 20 19 17 16 14 11 11 9 9 8 8 7 7 7 7 6 6 4 4 4 3 3 2 3 3 3 2 2 2 2 2 2 2 1 1 1 2 3 3
27 26 26 25 24 22 20 17 16 14 13 13 11 10 9 9 8 8 8 8 8 7 5 4 4 3 3 2 2 2 2 1 1 1 1 1 1 1 2 2 2 3 3 3
26 27 27 26 25 23 21 19 18 16 15 14 14 13 11 10 9 9 8 8 8 7 6 6 6 5 5 4 4 4 3 3 3 2 2 3 3 3 3 3 4 4 3 4
25 27 27 26 25 24 23 22 20 19 17 16 16 15 13 12 11 11 10 9 9 9 8 8 7 7 7 7 6 6 6 5 5 5 5 5 5 5 5 5 5 5 5 5
26 27 28 27 27 27 25 24 22 21 20 18 17 16 15 14 12 12 12 11 10 10 10 9 9 9 9 9 9 8 8 8 7 7 7 7 7 7 7 7 6 6 6 7
26 27 27 28 29 27 27 26 25 23 22 20 18 17 15 15 14 13 12 12 12 12 12 12 12 13 12 11 11 11 10 10 10 9 9 9 9 9 9 9 9 9 9 9
27 27 27 28 28 28 28 27 26 25 24 22 20 18 16 16 15 15 14 14 14 14 14 14 14 14 13 13 13 13 12 12 12 12 12 12 12 12 11 11 12 12 12 12
28 28 27 27 28 29 29 28 28 27 25 24 22 20 19 17 17 17 16 15 15 15 15 14 15 15 15 15 14 14 14 14 14 14 14 14 14 14 14 14 14 14 14 14
28 29 29 27 27 28 29 29 29 28 27 26 24 21 21 20 18 18 18 18 18 18 17 16 16 17 17 16 16 16 17 16 17 17 16 16 16 16 16 16 16 16 16 16
28 29 29 28 29 29 29 29 29 29 28 27 25 24 22 21 21 21 21 21 21 20 19 18 18 17 18 18 18 18 19 19 18 18 18 18 18 18 18 18 18 18 18 18
28 28 28 28 28 28 28 28 29 29 28 27 26 25 24 24 23 23 22 22 22 22 22 21 20 20 20 20 21 21 20 20 20 20 20 20 20 20 19 20 20 20 20 20
29 28 28 27 28 28 29 28 28 28 28 28 28 27 26 26 25 25 24 23 23 22 23 23 23 23 22 22 23 22 22 22 22 23 22 22 22 22 22 23 22 22 22 23
28 28 28 28 29 30 29 28 29 29 29 29 29 28 27 26 26 26 26 26 25 24 24 25 25 25 24 24 23 23 24 25 25 25 24 24 23 24 24 25 25 25 25 25
27 28 27 27 28 29 30 29 28 29 30 29 29 29 28 27 26 26 27 27 27 27 27 28 27 27 26 25 25 25 26 26 25 25 25 25 26 26 26 27 27 27 27 27
26 27 27 28 28 28 29 27 27 28 30 29 29 29 28 28 28 27 27 28 28 28 29 30 30 29 27 26 26 26 26 26 26 27 28 28 27 26 27 27 27 27 28 28
26 27 28 28 29 29 29 27 26 28 28 28 29 29 29 29 29 29 29 29 29 29 30 30 30 30 28 27 28 27 27 27 27 28 29 29 28 27 27 28 28 29 29 30
26 26 27 28 28 28 28 27 27 27 27 28 28 29 29 29 30 30 30 30 29 29 30 30 30 29 29 29 29 29 29 29 29 29 29 28 28 28 29 29 30 31 30 31
25 26 27 28 28 27 26 26 26 26 26 27 28 28 29 29 30 30 30 30 31 31 31 30 30 30 30 30 30 30 30 30 29 28 27 28 29 30 31 31 32 32 32 33
24 24 26 26 26 25 26 26 26 26 26 26 26 26 27 28 29 30 30 30 31 31 31 30 30 30 31 31 30 30 31 30 29 28 29 30 31 31 32 33 33 33 34 34
23 23 24 25 25 24 24 25 25 26 26 26 26 26 27 28 29 29 29 29 30 31 31 31 31 32 32 31 31 31 30 29 29 30 31 31 32 33 33 33 34 34 34 34
22 23 24 25 25 24 24 24 24 25 26 26 25 26 27 27 27 27 28 29 29 30 30 30 29 29 30 30 30 30 31 31 31 32 32 32 32 33 33 34 34 34 35 35
Wind_Direction
221 222 221 221 221 219 225 226 246 262 277 310 337 346 355 359 1 10 21 29 30 37 44 47 49 53 56 59 63 69 78 86 91 96 98 101 111 120 121 124 123 130 137 139
225 226 224 225 226 226 231 235 244 252 258 276 301 317 334 341 347 356 9 20 22 30 38 40 43 49 50 50 55 63 77 87 89 93 99 102 105 112 123 125 131 135 142 155
227 229 229 228 227 229 233 238 238 245 260 273 288 310 315 324 336 343 351 2 11 19 30 35 36 39 41 44 49 57 71 83 85 87 91 95 101 104 111 124 141 147 158 171
227 229 229 229 230 230 236 238 238 249 259 271 270 291 298 305 320 327 328 337 345 358 13 20 26 30 33 36 42 51 60 73 79 79 84 89 99 106 109 119 145 174 187 193
229 228 229 229 230 231 232 238 244 252 257 266 270 274 287 290 298 307 315 318 324 336 349 353 357 10 24 35 40 45 55 64 73 82 83 83 84 90 93 82 124 226 228 224
230 229 230 230 230 232 236 239 246 255 261 265 266 264 271 281 279 282 293 302 304 309 321 328 328 336 356 18 26 33 49 57 64 76 70 61 61 61 56 31 346 300 264 247
230 229 231 230 229 233 236 239 248 252 254 259 263 263 264 265 264 272 280 284 286 289 295 299 296 306 312 318 330 347 351 351 352 7 9 360 358 359 351 335 324 316 300 278
230 230 230 229 230 233 236 237 241 244 250 257 264 262 261 259 260 266 273 275 276 278 277 278 277 277 283 289 294 303 302 296 291 292 295 301 312 320 325 318 309 308 300 289
227 230 231 229 231 234 237 238 241 247 251 254 258 262 260 258 263 260 262 270 273 270 268 273 277 275 277 282 286 290 289 288 279 276 280 284 290 297 304 310 304 296 291 290
228 230 232 231 231 233 237 239 240 242 247 251 258 261 260 257 262 261 259 260 263 267 272 274 274 274 278 280 283 285 286 283 278 275 275 276 282 288 292 295 297 293 291 289
227 230 233 233 232 234 236 237 240 243 245 249 256 261 258 257 258 258 258 260 259 265 270 271 272 273 274 278 280 280 280 279 278 273 272 273 277 282 283 282 283 282 283 283
229 231 234 236 236 235 238 240 242 243 248 250 251 256 258 255 253 255 256 258 260 265 269 269 269 271 273 274 274 275 276 275 275 272 270 271 274 276 276 276 277 279 280 280
230 230 233 236 238 238 238 240 242 244 247 250 250 257 257 253 251 253 256 256 259 264 268 268 268 269 273 273 272 272 272 273 274 273 271 272 273 273 273 274 276 278 279 277
232 232 232 235 238 240 241 241 241 242 243 248 251 252 254 255 255 255 256 257 258 260 264 267 267 268 270 270 270 271 270 271 272 272 272 272 272 272 273 273 275 277 279 277
231 233 234 235 239 242 243 243 242 243 243 244 249 254 256 256 256 256 255 256 258 259 263 265 265 265 267 269 271 271 272 272 272 273 271 271 272 271 273 273 277 277 279 279
232 234 236 237 239 241 243 243 242 243 243 246 250 254 255 254 253 252 255 257 256 256 259 263 262 264 268 269 270 271 272 272 272 272 272 272 270 271 273 276 278 280 279 279
233 235 236 238 239 242 242 241 243 243 243 245 249 252 253 252 252 253 255 258 258 257 260 263 264 265 267 269 270 270 270 270 272 273 270 271 269 270 274 276 277 280 280 279
232 235 238 239 241 243 244 244 245 245 245 246 249 252 254 252 252 252 255 256 258 258 260 262 264 266 268 269 269 270 271 271 272 272 269 270 270 271 273 274 276 278 280 279
233 236 239 240 243 246 245 245 245 245 245 245 248 251 254 254 253 253 254 256 257 257 259 261 264 267 268 268 268 268 269 271 272 271 271 271 270 270 272 273 276 278 280 279
235 237 239 240 241 244 247 247 246 246 246 245 248 251 253 253 252 253 254 256 257 258 259 262 263 266 268 266 265 265 266 268 270 269 271 271 271 272 273 275 278 280 280 281
236 237 239 240 243 246 247 245 245 246 247 247 249 250 251 251 252 254 255 255 257 259 259 260 262 263 265 264 263 262 264 266 268 269 269 270 270 270 273 276 276 278 280 280
236 239 240 240 242 246 245 245 246 248 246 247 248 249 250 252 253 254 256 257 259 259 259 261 261 262 263 263 263 262 263 265 267 267 268 268 269 271 274 276 277 278 281 281
238 240 241 241 242 243 245 247 248 249 248 249 249 250 251 252 252 253 256 257 257 258 258 260 260 260 260 261 261 261 262 265 266 266 266 268 270 272 274 277 278 279 280 282
240 242 242 241 241 242 245 247 248 249 250 251 252 253 253 254 254 254 256 258 259 258 257 258 258 258 258 259 259 259 262 263 265 266 268 269 271 274 276 278 279 279 280 281
241 242 243 244 243 244 245 247 248 250 251 251 253 254 255 255 256 256 258 258 258 259 259 259 259 257 256 258 260 261 263 265 265 267 269 271 274 274 277 279 279 280 281 282
242 243 244 244 242 243 245 247 247 248 252 254 255 256 258 258 258 257 258 258 258 258 259 259 259 258 259 258 260 263 265 266 267 266 268 271 274 278 280 280 281 282 282 282
Height
5903 5907 5909 5911 5912 5914 5915 5916 5917 5916 5915 5914 5913 5912 5910 5909 5907 5906 5904 5902 5901 5899 5897 5896 5894 5893 5891 5890 5889 5888 5888 5887 5887 5887 5887 5887 5887 5888 5888 5888 5888 5889 5889 5889
5901 5903 5906 5908 5909 5911 5912 5914 5915 5914 5914 5913 5913 5912 5911 5909 5908 5906 5905 5903 5902 5900 5899 5897 5896 5894 5893 5892 5891 5890 5889 5889 5889 5889 5889 5889 5889 5889 5889 5889 5889 5889 5890 5890
5897 5902 5903 5904 5906 5908 5910 5912 5913 5913 5913 5912 5912 5912 5911 5910 5908 5907 5905 5904 5903 5901 5900 5899 5897 5896 5894 5893 5892 5891 5891 5890 5890 5890 5890 5890 5890 5890 5890 5890 5890 5890 5890 5890
5893 5897 5899 5901 5903 5905 5908 5909 5910 5911 5912 5912 5912 5913 5911 5909 5908 5907 5905 5904 5903 5902 5901 5900 5899 5897 5896 5895 5894 5893 5892 5891 5891 5891 5891 5891 5891 5891 5891 5890 5890 5891 5890 5890
5889 5892 5895 5897 5900 5903 5905 5906 5907 5908 5909 5911 5910 5911 5911 5908 5907 5906 5905 5904 5903 5902 5902 5900 5899 5898 5897 5896 5895 5894 5893 5892 5892 5892 5892 5892 5892 5891 5891 5891 5891 5891 5890 5890
5885 5888 5890 5894 5897 5899 5900 5903 5904 5905 5907 5909 5908 5909 5909 5907 5906 5905 5904 5903 5903 5902 5901 5900 5900 5899 5898 5897 5896 5895 5894 5894 5893 5893 5893 5892 5892 5892 5891 5891 5891 5890 5890 5890
5880 5883 5886 5889 5892 5895 5897 5900 5903 5904 5905 5906 5905 5905 5906 5905 5904 5903 5903 5902 5901 5901 5900 5900 5899 5899 5898 5897 5896 5896 5895 5894 5894 5894 5893 5893 5892 5892 5892 5891 5890 5890 5889 5889
5875 5879 5881 5884 5887 5890 5893 5897 5899 5902 5903 5904 5902 5902 5903 5902 5901 5901 5901 5900 5900 5899 5899 5899 5898 5898 5897 5897 5896 5895 5895 5894 5894 5894 5893 5893 5892 5892 5891 5891 5890 5889 5889 5888
5871 5875 5876 5879 5883 5886 5888 5891 5894 5897 5897 5899 5899 5899 5899 5899 5899 5899 5899 5898 5898 5898 5897 5897 5897 5897 5896 5896 5895 5895 5894 5894 5893 5893 5893 5892 5892 5891 5891 5890 5889 5889 5888 5887
5866 5869 5871 5874 5877 5880 5884 5886 5889 5891 5892 5894 5895 5896 5896 5896 5896 5896 5896 5896 5896 5896 5896 5896 5895 5895 5895 5894 5894 5894 5893 5893 5892 5892 5891 5891 5891 5890 5889 5889 5888 5887 5887 5886
5860 5864 5866 5869 5871 5875 5878 5880 5882 5885 5887 5890 5891 5894 5892 5892 5893 5893 5893 5893 5893 5893 5893 5893 5893 5893 5893 5892 5892 5892 5891 5891 5890 5890 5889 5889 5889 5888 5887 5887 5886 5885 5884 5884
5853 5858 5861 5863 5866 5869 5871 5874 5877 5880 5881 5883 5885 5890 5887 5888 5888 5888 5889 5889 5889 5889 5889 5889 5890 5889 5890 5890 5890 5889 5889 5888 5888 5887 5887 5887 5886 5886 5885 5884 5883 5883 5882 5881
5846 5851 5854 5858 5861 5863 5865 5868 5870 5874 5876 5877 5880 5884 5882 5882 5883 5884 5884 5885 5885 5885 5885 5885 5886 5886 5886 5886 5886 5886 5886 5885 5885 5884 5884 5884 5883 5883 5882 5881 5880 5879 5878 5877
5840 5844 5849 5853 5855 5856 5858 5861 5864 5867 5869 5871 5874 5876 5877 5877 5878 5879 5879 5880 5880 5881 5881 5881 5881 5882 5882 5882 5882 5882 5882 5881 5881 5881 5880 5880 5880 5879 5878 5877 5876 5875 5874 5873
5833 5837 5840 5844 5847 5849 5852 5854 5857 5859 5862 5865 5867 5869 5870 5871 5872 5873 5874 5874 5875 5875 5876 5876 5877 5877 5877 5877 5877 5877 5877 5877 5877 5876 5876 5876 5875 5875 5874 5873 5872 5871 5870 5869
5826 5830 5833 5837 5840 5842 5844 5847 5850 5852 5855 5857 5860 5862 5863 5864 5865 5867 5868 5868 5869 5870 5871 5871 5871 5872 5872 5872 5872 5872 5872 5872 5871 5871 5871 5871 5870 5869 5869 5868 5867 5866 5865 5863
5820 5823 5827 5830 5833 5834 5837 5840 5843 5845 5848 5851 5853 5855 5856 5858 5859 5860 5861 5862 5863 5863 5864 5865 5865 5866 5866 5866 5866 5866 5866 5866 5865 5865 5865 5864 5864 5864 5863 5862 5861 5860 5859 5858
5813 5817 5820 5823 5825 5827 5832 5833 5836 5838 5840 5843 5845 5847 5849 5850 5851 5853 5854 5855 5856 5857 5858 5858 5859 5859 5859 5859 5859 5859 5859 5859 5859 5859 5858 5858 5858 5857 5857 5855 5854 5853 5852 5851
5807 5810 5813 5816 5818 5820 5823 5825 5827 5830 5832 5835 5837 5839 5841 5842 5844 5845 5846 5847 5848 5849 5850 5851 5851 5852 5852 5853 5853 5853 5853 5853 5852 5852 5852 5852 5851 5850 5850 5849 5847 5846 5845 5844
5800 5803 5806 5808 5811 5814 5816 5818 5819 5822 5824 5827 5829 5831 5833 5835 5836 5838 5839 5839 5840 5841 5842 5842 5843 5844 5844 5845 5845 5845 5846 5845 5845 5845 5844 5844 5843 5842 5842 5841 5840 5838 5837 5836
5793 5795 5798 5800 5803 5805 5807 5810 5812 5815 5817 5819 5821 5823 5825 5827 5829 5830 5830 5831 5831 5832 5833 5834 5834 5836 5837 5837 5837 5838 5838 5838 5838 5837 5836 5836 5836 5835 5835 5834 5833 5831 5830 5828
5786 5789 5791 5793 5796 5800 5799 5802 5804 5806 5808 5810 5812 5814 5816 5818 5819 5821 5822 5823 5823 5824 5825 5825 5826 5827 5828 5829 5829 5830 5830 5830 5829 5829 5828 5828 5828 5827 5826 5826 5825 5823 5821 5820
5779 5782 5784 5787 5790 5791 5792 5794 5796 5798 5800 5802 5804 5806 5808 5809 5811 5812 5813 5814 5815 5815 5816 5817 5817 5818 5819 5819 5820 5821 5821 5821 5820 5819 5819 5820 5819 5819 5818 5817 5816 5814 5813 5811
5773 5774 5776 5779 5781 5783 5785 5786 5789 5791 5792 5794 5796 5798 5800 5801 5802 5804 5805 5805 5806 5806 5808 5808 5809 5809 5810 5810 5810 5811 5811 5811 5811 5811 5811 5811 5811 5810 5809 5808 5807 5805 5804 5802
5766 5769 5770 5772 5774 5776 5778 5780 5782 5784 5785 5787 5788 5790 5791 5792 5794 5795 5796 5796 5797 5798 5798 5799 5799 5799 5800 5801 5802 5802 5802 5801 5802 5802 5802 5802 5801 5801 5799 5798 5797 5796 5794 5793
5761 5763 5765 5766 5768 5770 5772 5773 5775 5777 5778 5779 5781 5782 5783 5784 5785 5786 5787 5788 5788 5789 5790 5790 5790 5791 5791 5792 5792 5793 5793 5792 5792 5791 5792 5792 5792 5791 5790 5789 5787 5786 5785 5783